Current Version              Previous Version:    01  02  03  04  05  06  07  08  09  10  11  12  13  14  15  16  17  18  19  20  21  22  23  24  25  26  27  28  29  30  
   31  32  33  34  35  36  37  38  39  40  41  42  43  44  45  46  47  48  49  50  51  52  53  54  55  56  57  58  59  60  

[Printable]
199
ASUS44 KFWD 241810
RWRTX
NORTH TEXAS HOURLY WEATHER ROUNDUP
NATIONAL WEATHER SERVICE FORT WORTH TX
100 PM CDT THU APR 24 2014

NOTE: "FAIR" INDICATES FEW OR NO CLOUDS BELOW 12,000 FEET WITH NO
SIGNIFICANT WEATHER AND/OR OBSTRUCTIONS TO VISIBILITY.

TXZ118-119-241900-
DALLAS/FORT WORTH METROPLEX

CITY           SKY/WX    TMP DP  RH WIND       PRES   REMARKS
DFW AIRPORT    FAIR      80  54  40 W23G31    29.81R
6HR MIN TEMP:  67; 6HR MAX TEMP:  81;

DALLAS LOVE    PTSUNNY   80  54  40 NW22G30   29.81R BLWGDUST
6HR MIN TEMP:  67; 6HR MAX TEMP:  81;

FTW MEACHAM    FAIR      78  55  44 NW18G25   29.83R
6HR MIN TEMP:  67; 6HR MAX TEMP:  79;

DAL-EXECUTIVE  PTSUNNY   83  63  50 W14G23    29.80S
6HR MIN TEMP:  67; 6HR MAX TEMP:  83; 6HR PCP: TRACE;

FTW-ALLIANCE   FAIR      76  55  48 NW17      29.83R
6HR MIN TEMP:  65; 6HR MAX TEMP:  76;

FTW-NAS-JRB    FAIR      80  51  36 NW18G28   29.88R
6HR MIN TEMP:  69; 6HR MAX TEMP:  83;

FTW-SPINKS     SUNNY     81  52  36 NW10      29.85R
ARLINGTON      CLOUDY    81  55  41 NW18G26   29.82R
6HR MIN TEMP:  66; 6HR MAX TEMP:  82;

GRAND PRAIRIE  PTSUNNY   79  63  57 NW14G21   29.80F
ADDISON        MOSUNNY   79  54  41 W16G31    29.83
LANCASTER      CLOUDY    79  63  58 SW14      29.82F
6HR MIN TEMP:  65; 6HR MAX TEMP:  79;

$$

TXZ091>094-102>105-117-120-121-131>134-241900-
NORTH CENTRAL TEXAS

CITY           SKY/WX    TMP DP  RH WIND       PRES   REMARKS
SHRMAN/DENISON FAIR      77  58  51 W21G29    29.80R
6HR MIN TEMP:  65; 6HR MAX TEMP:  77;

GAINESVILLE    FAIR      73  56  54 NW17G28   29.84R
6HR MIN TEMP:  65; 6HR MAX TEMP:  75;

BOWIE          FAIR      75  54  48 W22G30    29.85S
6HR MIN TEMP:  65; 6HR MAX TEMP:  75;

BRIDGEPORT     FAIR      74  51  43 NW13G23   29.88R
6HR MIN TEMP:  65; 6HR MAX TEMP:  74;

DECATUR        FAIR      74  52  46 NW16G25   29.85R
6HR MIN TEMP:  65; 6HR MAX TEMP:  74;

DENTON         FAIR      76  57  51 W15G26    29.82R
6HR MIN TEMP:  66; 6HR MAX TEMP:  77;

MCKINNEY       PTSUNNY   79  59  50 W22G32    29.81R
6HR MIN TEMP:  67; 6HR MAX TEMP:  79; 6HR PCP:  0.01;

GREENVILLE     PTSUNNY   77  63  61 S12G18    29.81S
ROCKWALL       PTSUNNY   79  64  60 S13G21    29.80S
6HR MIN TEMP:  65; 6HR MAX TEMP:  79;

TERRELL        CLOUDY    76  67  73 SW10G21   29.82S
6HR MIN TEMP:  67; 6HR MAX TEMP:  77;

WAXAHACHIE     PTSUNNY   80  62  54 SW14G20   29.82F
6HR MIN TEMP:  64; 6HR MAX TEMP:  80;

CLEBURNE       FAIR      81  50  34 W20G26    29.86R
GRANBURY       FAIR      80  49  32 W14G28    29.87R
6HR MIN TEMP:  67; 6HR MAX TEMP:  83;

$$

TXZ083>090-098>101-113>116-127>130-139>142-154-155-241900-
WESTERN NORTH TEXAS

CITY           SKY/WX    TMP DP  RH WIND       PRES   REMARKS
WICHITA FALLS  FAIR      77  42  28 N21G31    29.86S
6HR MIN TEMP:  65; 6HR MAX TEMP:  77;

WF-KICKAPOO    FAIR      75  38  25 NW18G33   29.88S
6HR MIN TEMP:  66; 6HR MAX TEMP:  75;

VERNON         FAIR      75  38  25 N16G31    29.92S
6HR MIN TEMP:  62; 6HR MAX TEMP:  90;

ABILENE        FAIR      76  37  24 N22       29.95S
6HR MIN TEMP:  65; 6HR MAX TEMP:  76;

ABILENE-DYESS  FAIR      75  38  26 N14G26    29.95F
6HR MIN TEMP:  65; 6HR MAX TEMP:  75;

BRECKENRIDGE   FAIR      78  40  26 NW16G24   29.92R
6HR MIN TEMP:  70; 6HR MAX TEMP:  78;

GRAHAM         FAIR      76  43  30 NW23      29.89R
6HR MIN TEMP:  67; 6HR MAX TEMP:  76;

MINERAL WELLS  FAIR      77  50  38 NW17      29.86R
6HR MIN TEMP:  65; 6HR MAX TEMP:  78;

STEPHENVILLE   FAIR      78  43  28 NW18G26   29.92R
6HR MIN TEMP:  64; 6HR MAX TEMP:  80;

COMANCHE       CLOUDY    78  41  26 N23       29.91R HAZE
6HR MIN TEMP:  65; 6HR MAX TEMP:  80;

BROWNWOOD      FAIR      79  39  24 NW18G29   29.91S
COLEMAN        FAIR      78  35  21 N17G25    29.94R
6HR MIN TEMP:  62; 6HR MAX TEMP:  80;

BRADY          SUNNY     86  37  17 N18       29.90R
$$

TXZ143>147-156>162-174-175-241900-
CENTRAL TEXAS

CITY           SKY/WX    TMP DP  RH WIND       PRES   REMARKS
WACO           FAIR      83  63  50 W10       29.83S
6HR MIN TEMP:  65; 6HR MAX TEMP:  83;

WACO-TSTC      MOSUNNY   81  64  57 SW10      29.84R
WACO-MCGREGOR  FAIR      84  63  48 W8G22     29.85S
6HR MIN TEMP:  64; 6HR MAX TEMP:  84;

HILLSBORO      FAIR      83  63  51 SW13G21   29.83S
6HR MIN TEMP:  65; 6HR MAX TEMP:  83;

CORSICANA      CLOUDY    78  65  63 SW16G23   29.85R
6HR MIN TEMP:  66; 6HR MAX TEMP:  79; 6HR PCP: TRACE;

MEXIA          CLOUDY    76  66  71 S18       29.85R
6HR MIN TEMP:  63; 6HR MAX TEMP:  76;

HEARNE         CLOUDY    76  65  67 S10       29.88S
6HR MIN TEMP:  66; 6HR MAX TEMP:  77;

CAMERON        CLOUDY    79  66  65 SW16G22   29.86F
6HR MIN TEMP:  64; 6HR MAX TEMP:  79;

TEMPLE         FAIR      81  63  54 S13G20    29.88S
6HR MIN TEMP:  64; 6HR MAX TEMP:  81;

KILLEEN        MOSUNNY   82  59  44 W10G21    29.85S
KILLEEN-SKYLRK FAIR      84  57  39 W9G18     29.84S
6HR MIN TEMP:  64; 6HR MAX TEMP:  84;

GATESVILLE     FAIR      82  61  47 NW5       29.86F
HAMILTON       FAIR      84  41  21 N21G30    29.88R
6HR MIN TEMP:  65; 6HR MAX TEMP:  86;

LAMPASAS       FAIR      84  60  44 NW8G18    29.85F
6HR MIN TEMP:  63; 6HR MAX TEMP:  84;

$$

TXZ095>097-106>112-122>126-135>138-148>153-164>167-241900-
EAST TEXAS

CITY           SKY/WX    TMP DP  RH WIND       PRES   REMARKS
PARIS          FAIR      75  64  69 SW18G25   29.80S
6HR MIN TEMP:  64; 6HR MAX TEMP:  75; 6HR PCP:  0.04;

SULPHUR SPRNGS PTSUNNY   74  63  67 SW22G28   29.84R
6HR MIN TEMP:  68; 6HR MAX TEMP:  76;

CLARKSVILLE    PTSUNNY   74  61  63 SW7G18    29.80F
6HR MIN TEMP:  64; 6HR MAX TEMP:  76;

MOUNT PLEASANT CLOUDY    75  62  62 SW14G21   29.83S
6HR MIN TEMP:  65; 6HR MAX TEMP:  75;

GILMER         CLOUDY    75  63  64 SW12      29.85R
MINEOLA        CLOUDY    75  64  69 S9G21     29.84S
TYLER          CLOUDY    75  62  64 SW16G23   29.84S
6HR MIN TEMP:  67; 6HR MAX TEMP:  76;

LONGVIEW       CLOUDY    78  63  59 S14G21    29.82F
6HR MIN TEMP:  67; 6HR MAX TEMP:  79;

MARSHALL       CLOUDY    76  62  60 S20G25    29.85F
6HR MIN TEMP:  66; 6HR MAX TEMP:  77;

ATHENS         CLOUDY    72  63  73 S7        29.84R
PALESTINE      CLOUDY    73  62  67 S8        29.87S
JACKSONVILLE   CLOUDY    74  60  61 S13G23    29.87F
HENDERSON      PTSUNNY   78  59  51 S15G23    29.84F
6HR MIN TEMP:  66; 6HR MAX TEMP:  81;

NACOGDOCHES    FAIR      77  64  65 SW12      29.86F
6HR MIN TEMP:  66; 6HR MAX TEMP:  79;

LUFKIN         FAIR      83  64  52 S15G24    29.86F
6HR MIN TEMP:  69; 6HR MAX TEMP:  83; 6HR PCP:  0.01;

$$

SUPPLEMENTAL OBSERVATIONS (CENTRAL)

CITY           SKY/WX    TMP DP  RH WIND       PRES   REMARKS
PAT MAYSE LAKE   N/A     73  63  68 S21         N/A
GREENVILLE       N/A     77  64  65 SW14G23     N/A
CEDAR HILL       N/A     81  59  47 NW7G16      N/A
PALESTINE        N/A     75  64  69 S7G21       N/A
MCGREGOR         N/A     84  61  45 W10G20      N/A
TEMPLE           N/A     82  66  57 S9G22       N/A
$$

SUPPLEMENTAL OBSERVATIONS (WEST)

CITY           SKY/WX    TMP DP  RH WIND       PRES   REMARKS
MILLERS CREEK    N/A     77  41  27 N20G29      N/A
POSSUM KINGDOM   N/A     77  45  31 NW15G28     N/A